Terminal Aerodrome Forecast
Issued by NWS Central Illinois

Home | Current Version | Previous Version | Text Only | Print | Product List | Glossary On
Versions: 1 2 3 4 5 6 7 8 9 10 11 12 13 14 15 16 17 18 19 20 21 22 23 24 25 26 27 28 29 30 31 32 33 34
910
FTUS43 KILX 230540
TAFPIA
TAF
KPIA 230540Z 2306/2406 VRB05KT 3SM BR FEW200
      TEMPO 2306/2310 1SM BR
     FM231500 03005KT P6SM BKN150
     FM232100 07010KT P6SM VCSH OVC045
     FM240000 08010KT 4SM -SHRA OVC015
     FM240300 09011G20KT 3SM -SHRA OVC008=

USA.gov is the U.S. government's official web portal to all federal, state and local government web resources and services.